Regional Weather Roundup
Issued by NWS

Home | Current Version | Previous Version | Text Only | Print | Product List | Glossary On
Versions: 1 2 3 4 5 6 7 8 9 10 11 12 13 14 15 16 17 18 19 20 21 22 23 24 25 26 27 28
000
ASUS45 KPSR 161410
RWRAZ

ARIZONA HOURLY REGIONAL WEATHER ROUNDUP
NATIONAL WEATHER SERVICE PHOENIX AZ
700 AM MST TUE JAN 16 2018

NOTE: FAIR INDICATES FEW OR NO CLOUDS BELOW 12,000 FEET WITH NO
SIGNIFICANT WEATHER AND/OR OBSTRUCTIONS TO VISIBILITY.

AZZ001>003-036-161500-
NORTHWEST ARIZONA

CITY           SKY/WX    TMP DP  RH WIND       PRES   REMARKS
BULLHEAD CITY  CLEAR     52  39  62 S5        30.14R
KINGMAN        PTCLDY    38  31  76 CALM      30.19R
$$

AZZ004>008-015-016-018-161500-
NORTH CENTRAL ARIZONA

CITY           SKY/WX    TMP DP  RH WIND       PRES   REMARKS
GRAND CANYON   MOCLDY    37  21  52 E8        30.29S WCI  31
WILLIAMS       CLOUDY    36  18  48 SE6       30.24S WCI  31
PRESCOTT       MOCLDY    35  27  72 SW5       30.23R WCI  31
FLAGSTAFF      PTCLDY    23  19  85 CALM      30.30R
PAYSON         MOCLDY    43  21  42 E5        30.24R
PAGE           MOCLDY    37  28  70 CALM      30.33R
$$

AZZ009>014-017-161500-
NORTHEAST ARIZONA

CITY           SKY/WX    TMP DP  RH WIND       PRES   REMARKS
WINSLOW        CLOUDY    27  18  69 W5        30.32R WCI  22
SAINT JOHNS    CLOUDY    25  19  78 W3        30.30R
WINDOW ROCK    MOCLDY    18  15  88 CALM      30.32R
SHOW LOW       MOCLDY    30  23  74 CALM      30.32R
$$

AZZ540-542>544-546-548-161500-
GREATER PHOENIX AREA

CITY           SKY/WX    TMP DP  RH WIND       PRES   REMARKS
PHOENIX        MOCLDY    55  36  48 CALM      30.11R
BUCKEYE        MOCLDY    46  41  81 N7        30.12R
GLENDALE       MOCLDY    50  39  66 CALM      30.13R
LUKE AFB       PTCLDY    48  39  69 N6        30.10R
DEER VALLEY    PTCLDY    54  34  46 CALM      30.11R
SCOTTSDALE     MOCLDY    53  36  52 CALM      30.13R
MESA-FALCON    MOCLDY    55  30  38 N3        30.12R
MESA-GATEWAY   MOCLDY    48  36  61 VRB3      30.13R
CHANDLER       PTCLDY    48  37  66 CALM      30.12R
$$

AZZ539-553-161500-
SOUTHWEST MARICOPA COUNTY AND PINAL COUNTY

CITY           SKY/WX    TMP DP  RH WIND       PRES   REMARKS
CASA GRANDE    NOT AVBL
GILA BEND      CLEAR     48  36  61 E5        30.10R
$$

AZZ503-504-507>509-161500-
SOUTHEAST ARIZONA

CITY           SKY/WX    TMP DP  RH WIND       PRES   REMARKS
TUCSON         CLOUDY    52  25  35 SE8       30.13F
DAVIS-MONTHAN  CLEAR     51  23  33 SE9       30.11F
RYAN FIELD     CLEAR     50  23  34 MISG      30.12F
NOGALES        CLOUDY    43  23  45 E5        30.16F
SIERRA VISTA   CLOUDY    43  19  39 CALM      30.24R
DOUGLAS        CLOUDY    38  21  50 NE6       30.26R WCI  33
SAFFORD        CLOUDY    41  23  48 SE8       30.33R
$$

AZZ532-161500-
SOUTHWEST ARIZONA

CITY           SKY/WX    TMP DP  RH WIND       PRES   REMARKS
YUMA           PTCLDY    55  38  52 NE6       30.09
$$

CAZ041-043-047-048-061-525>527-560>570-161500-
SOUTHERN CALIFORNIA

CITY           SKY/WX    TMP DP  RH WIND       PRES   REMARKS
DOWNTOWN L.A.  CLOUDY    53  52  96 CALM      30.10F FOG
L.A. AIRPORT   FOG       55  55 100 CALM      30.12R VSB 1/2
SAN DIEGO      MOCLDY    54  52  93 CALM      30.12R
BURBANK        CLOUDY    52  45  77 NW3       30.12R
ONTARIO        CLOUDY    53  44  71 NE3       30.11S
RIVERSIDE      MOCLDY    50  43  77 NE3       30.12S
PALM SPRINGS   PTCLDY    59  38  45 NW9       30.08S
IMPERIAL       PTCLDY    47  34  60 W5        30.07R
BLYTHE         CLEAR     48  37  65 CALM      30.10S
NEEDLES        CLEAR     53  39  59 CALM      30.13R
$$

NVZ020-UTZ003-161500-
SOUTHERN NEVADA-UTAH

CITY           SKY/WX    TMP DP  RH WIND       PRES   REMARKS
LAS VEGAS      MOCLDY    50  39  66 S3        30.17R
SALT LAKE CITY PTCLDY    36  22  56 S10       30.31R WCI  28
$$

NMZ009-TXZ055-161500-
NEW MEXICO-WEST TEXAS

CITY           SKY/WX    TMP DP  RH WIND       PRES   REMARKS
ALBUQUERQUE    CLOUDY    25  13  60 E21       30.44R WCI  11
EL PASO        PTCLDY    28   7  41 E5        30.49R WCI  23
$$


........................KEY........................
SKY/WX - SKY CONDITION/WEATHER
TMP    - TEMPERATURE IN FAHRENHEIT
DP     - DEW POINT IN FAHRENHEIT
RH     - RELATIVE HUMIDITY IN PERCENT
WIND   - DIRECTION AND SPEED IN MILES PER HOUR (MPH)
VRB    - VARIABLE WIND DIRECTION
PRES   - MEAN SEA LEVEL PRESSURE IN INCHES OF MERCURY
         F - FALLING PRESSURE   R - RISING PRESSURE
         S - STEADY PRESSURE
VSB    - VISIBILITY IN MILES
HX     - HEAT INDEX IN FAHRENHEIT
WCI    - WIND CHILL INDEX IN FAHRENHEIT
TC     - TEMPERATURE IN CELSIUS WHICH IS ALSO KNOWN AS
         TEMPERATURE IN CENTIGRADE
AFB    - AIR FORCE BASE
         LUKE AFB IS LUKE AIR FORCE BASE
         DAVIS-MONTHAN IS DAVIS-MONTHAN AIR FORCE BASE
NAS    - NAVAL AIR STATION
         EL CENTRO NAS IS EL CENTRO NAVAL AIR STATION
N/A    - NOT AVAILABLE





USA.gov is the U.S. government's official web portal to all federal, state and local government web resources and services.